Simultaneous Nadir Overpasses (SNOs) Predictions

Prediction of SNOs between GOES-17 and TERRA Satellite Orbit:

Table of predicted SNOs for the next 14.0 days since TLE Epoch: 7/4/2025
Index Date Time (GOES-17) GOES-17 Lat,Lon TERRA Lat,Lon Distance(km) Time Diff (sec)
1 07/06/2025 15:25:30 -0.02, -92.15 -0.29, -91.00 131.25 80
2 07/07/2025 03:42:23 0.02, -91.86 -0.80, -95.75 442.06 80
3 07/09/2025 03:23:10 0.03, -90.79 -0.03, -91.09 33.51 80
4 07/11/2025 03:06:36 0.03, -89.73 0.74, -86.43 375.07 80
5 07/11/2025 15:23:22 -0.03, -89.47 0.31, -91.16 191.30 80
6 07/13/2025 15:06:47 -0.04, -88.41 -0.42, -86.48 217.86 80
7 07/14/2025 03:23:42 0.04, -88.12 -0.61, -91.25 355.34 80
8 07/16/2025 03:07:07 0.04, -87.06 0.13, -86.58 54.58 80
9 07/18/2025 02:47:52 0.05, -86.00 0.88, -81.91 464.92 80
10 07/18/2025 15:04:39 -0.04, -85.75 0.14, -86.64 100.79 80
